Find Local Weather

World > North America > United States > North Dakota

Kongsberg, North Dakota Regional Weather

Lat: 47.85N, Lon: 100.8W
Wx Zone: NDZ021
Warning FLW WEATHER ALERT - HARD FROST ADVISORY (More Info. Click Here) Warning
Feedback

Kongsberg, ND Regional Weather

Expires:201905192100;;130794
ASUS43 KBIS 192010
RWRND 

NORTH DAKOTA REGIONAL WEATHER ROUNDUP
NATIONAL WEATHER SERVICE BISMARCK ND
300 PM CDT SUN MAY 19 2019

NOTE: "FAIR" INDICATES FEW OR NO CLOUDS BELOW 12,000 FEET WITH NO
SIGNIFICANT WEATHER AND/OR OBSTRUCTIONS TO VISIBILITY.



NDZ018>021-031>035-040>046-192100-
SOUTHWEST NORTH DAKOTA
  
CITY           SKY/WX    TMP DP  RH WIND       PRES   REMARKS
BISMARCK       CLOUDY    49  33  54 NE12      30.06S                  
GARRISON         N/A     52  24  33 NE14G23   30.06F                  
HETTINGER ARPT CLOUDY    46  33  60 N12G21    30.07R                  
$$
 

SKY/WX - Weather  TMP - Temperature  DP - Dew Point  RH - Relative Humidity
WIND - Wind Direction/Speed PRES - Barometric Pressure VSB - Visibility
WCI - Wind Chill Index E13G22 Wind - East Wind 13 mph/Gusts of 22 mph